{"data":{"norad_id":56791,"epoch":"2026-05-25T03:15:43.508736Z","epoch_age_seconds":77493,"freshness":"FRESH","line1":"1 56791U 23078AA  26145.13592024  .00000022  00000+0  96561-5 0  9997","line2":"2 56791  69.9982 151.6098 0003391 268.5041  91.5730 14.98330815164137","mean_motion":14.98330815,"eccentricity":0.0003391,"inclination_deg":69.9982,"raan_deg":151.6098,"arg_perigee_deg":268.5041,"mean_anomaly_deg":91.573,"bstar":9.6561e-6,"rev_number":16413,"period_min":96.106946849385,"perigee_km":569.69656107061,"apogee_km":574.41018017997,"semimajor_km":6950.1903706253,"source":"CELESTRAK","updated_at":"2026-05-25T13:38:18.156363Z"}}